Location: Hamilton
(43.2500°N, 79.8330°W)
Time: 19:03:37
(UTC-04:00)

Amateur Radio Satellites - All Passes

Search period start: 25 July 2014 18:33
Search period end: 26 July 2014 18:33
Location: Hamilton, 43.2500°N, 79.8330°W

Satellite Date Start Highest point End Downlink Frequencies (MHz)
Time Altitude Azimuth
SO-67 25 Jul 18:50:47 18:53:18 19° 68° (ENE) 18:55:49 435.3500 MHz FM
Hamsat 25 Jul 18:57:05 19:01:07 47° 261° (W) 19:05:11 145.90 MHz
Saudisat 1A 25 Jul 19:02:20 19:05:43 22° 248° (WSW) 19:09:04 436.775 MHz
JAS-2 25 Jul 19:05:51 19:13:41 70° 258° (WSW) 19:21:10 435.800 - 435.900 CW/SSB, 435.910 FM
OPAL 25 Jul 19:34:47 19:35:25 10° 307° (NW) 19:36:02 ?
RS-15 25 Jul 19:56:43 20:05:05 24° 7° (N) 20:13:33 29.354 - 29.394 USB, Beacon 29.352 USB
STRAND 1 25 Jul 20:09:20 20:14:28 74° 103° (ESE) 20:19:33 ?
SO-67 25 Jul 20:23:17 20:26:13 26° 264° (W) 20:29:11 435.3500 MHz FM
HO-68 25 Jul 20:44:01 20:50:47 47° 65° (ENE) 20:57:34 435.675 MHz FM
UKube-1 25 Jul 20:55:31 20:59:10 27° 67° (ENE) 21:02:50 145.840 MHz, 145.915 MHz
JAS-2 25 Jul 20:56:18 20:59:45 13° 275° (W) 21:03:09 435.800 - 435.900 CW/SSB, 435.910 FM
SO-50 25 Jul 21:17:12 21:20:36 19° 39° (NE) 21:24:01 436.795 FM
Oscar 11 25 Jul 21:44:17 21:48:18 40° 71° (ENE) 21:52:20 145.825 FM, Beacon 2401.500 USB
MaSat-1 25 Jul 21:47:12 21:49:53 18° 101° (E) 21:52:51 437.345 MHz
STRAND 1 25 Jul 21:50:04 21:53:03 16° 301° (WNW) 21:56:00 ?
FUNcube-1 25 Jul 21:56:26 21:59:42 21° 66° (ENE) 22:02:55 145.950 - 145.970 MHz USB
RS-15 25 Jul 22:10:51 22:21:16 45° 40° (NE) 22:31:55 29.354 - 29.394 USB, Beacon 29.352 USB
UKube-1 25 Jul 22:31:26 22:35:17 30° 263° (W) 22:39:09 145.840 MHz, 145.915 MHz
HO-68 25 Jul 22:32:08 22:38:36 36° 263° (W) 22:45:06 435.675 MHz FM
SO-50 25 Jul 22:56:56 23:01:42 77° 238° (WSW) 23:06:30 436.795 FM
Lituanica SAT-1 25 Jul 23:17:14 23:18:03 12° 135° (SE) 23:18:52 437.275 MHz beacon
Oscar 11 25 Jul 23:21:36 23:24:39 19° 267° (W) 23:27:44 145.825 FM, Beacon 2401.500 USB
MaSat-1 25 Jul 23:22:47 23:26:42 46° 303° (WNW) 23:31:16 437.345 MHz
FUNcube-1 25 Jul 23:31:50 23:35:54 37° 262° (W) 23:39:54 145.950 - 145.970 MHz USB
UOSAT-12 25 Jul 23:37:54 23:42:00 28° 44° (NE) 23:46:04 437.025 FM, 437.400 FM
RS-15 26 Jul 00:23:22 00:34:12 65° 244° (WSW) 00:45:27 29.354 - 29.394 USB, Beacon 29.352 USB
Lituanica SAT-1 26 Jul 00:48:21 00:50:17 37° 332° (NNW) 00:52:14 437.275 MHz beacon
PCSat 26 Jul 01:07:58 01:12:01 22° 107° (ESE) 01:16:05 145.825 MHz
UOSAT-12 26 Jul 01:17:50 01:22:19 43° 243° (WSW) 01:26:44 437.025 FM, 437.400 FM
ISS 26 Jul 01:20:01 01:23:12 42° 140° (SE) 01:26:25 145.800 FM
Oscar 16 26 Jul 01:35:42 01:37:59 13° 89° (E) 01:40:15 437.025 USB, Beacon 2401.1428
AO-27 26 Jul 02:08:18 02:09:51 11° 88° (E) 02:11:23 436.795 MHz FM
Uribyol 2 26 Jul 02:09:53 02:11:58 12° 88° (E) 02:14:02 436.500 FM
Sapphire 26 Jul 02:15:45 02:21:08 75° 118° (ESE) 02:26:34 437.095 MHz 1200 baud AX-25 AFSK
Lituanica SAT-1 26 Jul 02:22:51 02:23:10 10° 351° (N) 02:23:29 437.275 MHz beacon
JAS-1B 26 Jul 02:29:57 02:36:33 21° 83° (E) 02:42:33 435.800 - 435.900 CW/SSB
RS-15 26 Jul 02:39:45 02:44:16 13° 265° (W) 02:48:51 29.354 - 29.394 USB, Beacon 29.352 USB
Oscar 19 26 Jul 02:45:00 02:50:05 56° 101° (E) 02:55:09 437.125 CW, 437.150 USB
AO-40 26 Jul 02:48:10 04:30:49 23° 217° (SW) 07:45:40 Beacon 2401.320
PCSat 26 Jul 02:49:41 02:55:00 57° 305° (NW) 03:00:22 145.825 MHz
ISS 26 Jul 02:56:53 02:59:59 34° 338° (NNW) 03:03:06 145.800 FM
Oscar 16 26 Jul 03:12:45 03:17:56 80° 286° (WNW) 03:23:06 437.025 USB, Beacon 2401.1428
ITAMSAT 1 26 Jul 03:26:33 03:31:42 62° 102° (ESE) 03:36:48 435.822 SSB
TMSAT-1 26 Jul 03:26:58 03:30:47 20° 92° (E) 03:34:34 436.925 FM
AO-Echo 26 Jul 03:28:15 03:33:24 69° 102° (ESE) 03:38:20 ?
OPAL 26 Jul 03:30:38 03:34:56 31° 64° (ENE) 03:39:15 ?
AO-27 26 Jul 03:44:50 03:50:04 89° 285° (WNW) 03:55:14 436.795 MHz FM
Uribyol 2 26 Jul 03:46:53 03:52:05 82° 285° (WNW) 03:57:14 436.500 FM
Gurwin Techsat 1B 26 Jul 03:48:17 03:53:19 42° 98° (E) 03:58:19 435.225 FM
Lituanica SAT-1 26 Jul 03:55:55 03:56:19 10° 10° (N) 03:56:43 437.275 MHz beacon
Sapphire 26 Jul 04:01:07 04:05:09 21° 318° (NW) 04:09:13 437.095 MHz 1200 baud AX-25 AFSK
AO-7 26 Jul 04:01:07 04:04:47 13° 86° (E) 04:08:25 29.400 - 29.500 MHz
JAS-1B 26 Jul 04:18:44 04:28:27 88° 105° (ESE) 04:36:50 435.800 - 435.900 CW/SSB
Oscar 19 26 Jul 04:25:18 04:29:01 21° 298° (WNW) 04:32:44 437.125 CW, 437.150 USB
ISS 26 Jul 04:34:54 04:37:25 19° 358° (N) 04:39:56 145.800 FM
PCSat 26 Jul 04:37:14 04:39:39 13° 326° (NNW) 04:42:04 145.825 MHz
Oscar 16 26 Jul 04:54:47 04:56:26 12° 304° (WNW) 04:58:06 437.025 USB, Beacon 2401.1428
TMSAT-1 26 Jul 05:05:52 05:11:02 55° 289° (WNW) 05:16:10 436.925 FM
ITAMSAT 1 26 Jul 05:07:12 05:10:42 19° 299° (WNW) 05:14:12 435.822 SSB
AO-Echo 26 Jul 05:08:24 05:11:33 17° 300° (WNW) 05:14:38 ?
OPAL 26 Jul 05:09:19 05:13:45 33° 261° (W) 05:18:13 ?
Uosat F 26 Jul 05:22:17 05:27:12 52° 100° (E) 05:32:04 435.120 FM
AO-27 26 Jul 05:26:30 05:28:48 13° 303° (WNW) 05:31:06 436.795 MHz FM
Lituanica SAT-1 26 Jul 05:27:13 05:29:10 39° 28° (NNE) 05:31:05 437.275 MHz beacon
Gurwin Techsat 1B 26 Jul 05:28:40 05:33:05 27° 295° (WNW) 05:37:28 435.225 FM
Uribyol 2 26 Jul 05:28:52 05:30:43 12° 304° (WNW) 05:32:34 436.500 FM
STRAND 1 26 Jul 05:49:40 05:52:51 17° 60° (ENE) 05:56:01 ?
AO-7 26 Jul 05:50:38 05:59:00 72° 106° (ESE) 06:07:16 29.400 - 29.500 MHz
MaSat-1 26 Jul 06:04:19 06:06:30 12° 40° (NE) 06:08:40 437.345 MHz
Oscar 10/S400 26 Jul 06:05:56 07:22:53 37° 237° (WSW) 11:47:07 145.825 - 145.975 CW/USB, Beacon 145.810 USB
JAS-1B 26 Jul 06:10:14 06:17:38 26° 308° (NW) 06:24:28 435.800 - 435.900 CW/SSB
ISS 26 Jul 06:11:53 06:14:53 29° 19° (NNE) 06:17:53 145.800 FM
JAS-2 26 Jul 06:17:49 06:20:58 15° 85° (E) 06:23:58 435.800 - 435.900 CW/SSB, 435.910 FM
KITSAT 1 26 Jul 06:34:31 06:41:29 33° 107° (ESE) 06:48:28 435.175 FM
Hamsat 26 Jul 06:41:54 06:45:34 27° 95° (E) 06:49:15 145.90 MHz
Lituanica SAT-1 26 Jul 07:00:50 07:01:19 11° 225° (SW) 07:01:48 437.275 MHz beacon
Uosat F 26 Jul 07:01:56 07:05:37 21° 298° (WNW) 07:09:17 435.120 FM
STRAND 1 26 Jul 07:26:20 07:31:27 71° 257° (WSW) 07:36:37 ?
MaSat-1 26 Jul 07:39:43 07:45:00 59° 60° (ENE) 07:50:04 437.345 MHz
AO-7 26 Jul 07:44:16 07:51:07 30° 306° (NW) 07:57:55 29.400 - 29.500 MHz
SO-67 26 Jul 07:46:16 07:48:50 19° 94° (E) 07:51:23 435.3500 MHz FM
ISS 26 Jul 07:48:28 07:51:48 59° 217° (SW) 07:55:06 145.800 FM
JAS-2 26 Jul 08:00:49 08:07:02 79° 286° (WNW) 08:12:32 435.800 - 435.900 CW/SSB, 435.910 FM
Hamsat 26 Jul 08:17:50 08:21:29 28° 291° (WNW) 08:25:09 145.90 MHz
KITSAT 1 26 Jul 08:28:26 08:36:26 61° 308° (NW) 08:44:29 435.175 FM
Saudisat 1A 26 Jul 09:08:36 09:13:00 75° 122° (ESE) 09:17:26 436.775 MHz
MaSat-1 26 Jul 09:18:04 09:21:54 20° 258° (WSW) 09:25:35 437.345 MHz
SO-67 26 Jul 09:18:59 09:21:54 25° 290° (WNW) 09:24:48 435.3500 MHz FM
Sapphire 26 Jul 09:20:35 09:23:49 16° 37° (NE) 09:27:02 437.095 MHz 1200 baud AX-25 AFSK
JAS-2 26 Jul 09:48:08 09:50:54 13° 308° (NW) 09:53:32 435.800 - 435.900 CW/SSB, 435.910 FM
PCSat 26 Jul 09:53:40 09:58:11 26° 45° (NE) 10:02:41 145.825 MHz
HO-68 26 Jul 09:57:48 10:04:33 43° 99° (E) 10:11:15 435.675 MHz FM
UKube-1 26 Jul 10:18:12 10:22:20 40° 99° (E) 10:26:25 145.840 MHz, 145.915 MHz
KITSAT 1 26 Jul 10:27:53 10:33:40 21° 333° (NNW) 10:39:29 435.175 FM
Saudisat 1A 26 Jul 10:50:05 10:53:06 18° 321° (NW) 10:56:08 436.775 MHz
Sapphire 26 Jul 11:02:45 11:08:12 74° 58° (ENE) 11:13:37 437.095 MHz 1200 baud AX-25 AFSK
Oscar 11 26 Jul 11:06:35 11:10:56 72° 102° (ESE) 11:15:15 145.825 FM, Beacon 2401.500 USB
FUNcube-1 26 Jul 11:19:45 11:23:36 35° 97° (E) 11:27:27 145.950 - 145.970 MHz USB
PCSat 26 Jul 11:36:38 11:41:57 56° 245° (WSW) 11:47:14 145.825 MHz
HO-68 26 Jul 11:45:40 11:52:11 40° 297° (WNW) 11:58:40 435.675 MHz FM
UKube-1 26 Jul 11:55:04 11:58:16 20° 296° (WNW) 12:01:28 145.840 MHz, 145.915 MHz
Oscar 19 26 Jul 12:27:23 12:29:31 13° 57° (ENE) 12:31:38 437.125 CW, 437.150 USB
KITSAT 1 26 Jul 12:29:10 12:32:54 14° 3° (N) 12:36:39 435.175 FM
RS-15 26 Jul 12:41:00 12:47:37 18° 98° (E) 12:54:08 29.354 - 29.394 USB, Beacon 29.352 USB
Oscar 11 26 Jul 12:44:48 12:46:32 12° 299° (WNW) 12:48:16 145.825 FM, Beacon 2401.500 USB
Sapphire 26 Jul 12:47:45 12:50:58 16° 256° (WSW) 12:54:12 437.095 MHz 1200 baud AX-25 AFSK
Oscar 16 26 Jul 12:53:08 12:57:01 22° 63° (ENE) 13:00:55 437.025 USB, Beacon 2401.1428
FUNcube-1 26 Jul 12:56:42 12:59:48 21° 294° (WNW) 13:02:54 145.950 - 145.970 MHz USB
AO-Echo 26 Jul 13:06:05 13:08:55 15° 59° (ENE) 13:11:45 ?
ITAMSAT 1 26 Jul 13:09:06 13:12:00 15° 59° (ENE) 13:14:54 435.822 SSB
SO-50 26 Jul 13:13:40 13:17:22 26° 114° (ESE) 13:21:09 436.795 FM
JAS-1B 26 Jul 13:14:58 13:21:39 24° 50° (NE) 13:28:43 435.800 - 435.900 CW/SSB
AO-27 26 Jul 13:26:19 13:30:13 22° 62° (ENE) 13:34:06 436.795 MHz FM
Uribyol 2 26 Jul 13:27:58 13:31:59 23° 63° (ENE) 13:35:59 436.500 FM
Gurwin Techsat 1B 26 Jul 13:35:18 13:36:37 11° 55° (NE) 13:37:56 435.225 FM
Oscar 19 26 Jul 14:02:58 14:08:04 88° 75° (ENE) 14:13:14 437.125 CW, 437.150 USB
KITSAT 1 26 Jul 14:25:24 14:31:51 25° 33° (NNE) 14:38:15 435.175 FM
Oscar 16 26 Jul 14:31:06 14:36:02 49° 260° (W) 14:41:01 437.025 USB, Beacon 2401.1428
AO-Echo 26 Jul 14:41:38 14:46:56 85° 256° (WSW) 14:52:19 ?
ITAMSAT 1 26 Jul 14:45:36 14:50:50 80° 256° (WSW) 14:56:05 435.822 SSB
RS-15 26 Jul 14:46:57 14:58:04 78° 119° (ESE) 15:08:58 29.354 - 29.394 USB, Beacon 29.352 USB
TMSAT-1 26 Jul 14:48:29 14:53:14 35° 67° (ENE) 14:58:00 436.925 FM
SO-50 26 Jul 14:53:34 14:57:45 38° 312° (NW) 15:02:03 436.795 FM
AO-7 26 Jul 15:00:28 15:06:54 26° 52° (NE) 15:13:20 29.400 - 29.500 MHz
JAS-1B 26 Jul 15:01:49 15:10:34 81° 72° (ENE) 15:20:26 435.800 - 435.900 CW/SSB
Uosat F 26 Jul 15:02:01 15:03:34 11° 56° (ENE) 15:05:06 435.120 FM
AO-27 26 Jul 15:04:15 15:09:21 53° 260° (W) 15:14:28 436.795 MHz FM
Uribyol 2 26 Jul 15:06:06 15:11:07 49° 260° (W) 15:16:11 436.500 FM
Gurwin Techsat 1B 26 Jul 15:10:21 15:15:38 73° 74° (ENE) 15:20:57 435.225 FM
UOSAT-12 26 Jul 15:29:42 15:34:03 44° 117° (ESE) 15:38:30 437.025 FM, 437.400 FM
Oscar 19 26 Jul 15:46:40 15:48:06 11° 272° (W) 15:49:33 437.125 CW, 437.150 USB
Saudisat 1A 26 Jul 15:56:11 15:58:36 14° 35° (NE) 16:01:00 436.775 MHz
KITSAT 1 26 Jul 16:20:26 16:28:35 80° 57° (ENE) 16:36:39 435.175 FM
AO-Echo 26 Jul 16:25:08 16:26:27 11° 273° (W) 16:27:47 ?
TMSAT-1 26 Jul 16:28:26 16:33:08 32° 264° (W) 16:37:52 436.925 FM
JAS-2 26 Jul 16:32:24 16:35:16 13° 51° (NE) 16:38:04 435.800 - 435.900 CW/SSB, 435.910 FM
Uosat F 26 Jul 16:36:28 16:41:31 80° 74° (ENE) 16:46:35 435.120 FM
AO-7 26 Jul 16:50:25 16:58:47 83° 252° (WSW) 17:07:13 29.400 - 29.500 MHz
Gurwin Techsat 1B 26 Jul 16:53:13 16:56:09 15° 271° (W) 16:59:06 435.225 FM
JAS-1B 26 Jul 16:55:04 17:02:05 26° 273° (W) 17:09:47 435.800 - 435.900 CW/SSB
RS-15 26 Jul 17:01:26 17:11:29 38° 325° (NW) 17:21:31 29.354 - 29.394 USB, Beacon 29.352 USB
UOSAT-12 26 Jul 17:10:25 17:14:23 27° 317° (NW) 17:18:25 437.025 FM, 437.400 FM
OPAL 26 Jul 17:17:14 17:22:13 56° 103° (ESE) 17:27:14 ?
Saudisat 1A 26 Jul 17:34:28 17:38:55 80° 55° (NE) 17:43:18 436.775 MHz
Hamsat 26 Jul 17:36:48 17:40:04 23° 67° (ENE) 17:43:20 145.90 MHz
JAS-2 26 Jul 18:11:19 18:18:54 56° 70° (ENE) 18:26:04 435.800 - 435.900 CW/SSB, 435.910 FM
KITSAT 1 26 Jul 18:17:07 18:23:05 23° 256° (WSW) 18:29:02 435.175 FM
Uosat F 26 Jul 18:18:51 18:20:54 12° 271° (W) 18:22:57 435.120 FM
